Nashua, NH

1:22 PM EST on December 09, 2019 (GMT -0500)
Boire

Weather History for KASH - June, 2019

Change the Weather History Date:

Thursday, June 13, 2019

  Actual Average Record
Temperature  
Mean Temperature 56 °F -  
Max Temperature 60 °F 75 °F 95 °F (1956)
Min Temperature 50 °F 52 °F 38 °F (1953)
Degree Days  
Heating Degree Days 10    
Growing Degree Days 6 (Base 50)    
Moisture  
Dew Point 52 °F    
Average Humidity 95    
Maximum Humidity 100    
Minimum Humidity 62    
Precipitation  
Precipitation 0.34 in - - ()
Sea Level Pressure  
Sea Level Pressure 29.92 in    
Wind  
Wind Speed 4 mph ()    
Max Wind Speed 14 mph    
Max Gust Speed 23 mph    
Visibility 6.3 miles    
Events Rain    
Averages and records for this station are not official NWS values.
T = Trace of Precipitation, MM = Missing Value Source: Averaged Metar Reports

Daily Weather History Graph

Daily Weather History Graph

Search for Another Location

Airport or City:

Astronomy

Jun. 13, 2019 Rise Set
Actual Time 5:07 AM EDT 8:25 PM EDT
Civil Twilight 4:32 AM EDT 9:00 PM EDT
Nautical Twilight 3:46 AM EDT 9:45 PM EDT
Astronomical Twilight 2:51 AM EDT 10:41 PM EDT
Moon 4:30 PM EDT (6/13) 2:57 AM EDT (6/13)
Length of Visible Light 16h 28m
Length of Day
15h 18m
Waxing Gibbous, 85% of the Moon is Illuminated
Jun 13
Waxing Gibbous
Jun 17
Full
Jun 25
Last Quarter
Jul 2
New
Jul 9
First Quarter

Hourly Weather History & Observations

Time (EDT) Temp. Dew Point Humidity Pressure Visibility Wind Dir Wind Speed Gust Speed Precip Events Conditions
12:56 AM 60.1 °F 46.9 °F 62% 30.17 in 10.0 mi Calm Calm - N/A   Clear
1:56 AM 57.9 °F 48.0 °F 70% 30.16 in 10.0 mi SSE 3.5 mph - N/A   Clear
2:56 AM 57.0 °F 48.9 °F 74% 30.14 in 10.0 mi SSE 3.5 mph - N/A   Clear
3:56 AM 55.0 °F 51.1 °F 86% 30.13 in 10.0 mi Calm Calm - N/A   Clear
4:56 AM 54.0 °F 51.1 °F 90% 30.12 in 10.0 mi SE 3.5 mph - N/A   Clear
5:56 AM 54.0 °F 51.1 °F 90% 30.11 in 10.0 mi Calm Calm - N/A   Clear
6:56 AM 55.0 °F 52.0 °F 89% 30.11 in 10.0 mi Calm Calm - N/A   Clear
7:56 AM 55.9 °F 53.1 °F 90% 30.09 in 10.0 mi East 4.6 mph - 0.00 in Rain Light Rain
8:56 AM 55.9 °F 55.0 °F 97% 30.09 in 10.0 mi ENE 3.5 mph - 0.03 in Rain Light Rain
9:56 AM 57.9 °F 55.9 °F 93% 30.08 in 10.0 mi ESE 8.1 mph - 0.00 in   Overcast
10:56 AM 59.0 °F 52.0 °F 78% 30.05 in 10.0 mi ESE 12.7 mph - N/A   Overcast
11:42 AM 57.2 °F 53.6 °F 88% 30.01 in 5.0 mi SE 13.8 mph 23.0 mph 0.00 in Rain Light Rain
11:56 AM 55.0 °F 54.0 °F 96% 30.05 in 5.0 mi ESE 13.8 mph - 0.01 in Rain Light Rain
12:41 PM 53.6 °F 53.6 °F 100% 30.00 in 4.0 mi East 11.5 mph - 0.05 in Rain Rain
12:56 PM 53.1 °F 53.1 °F 100% 30.02 in 4.0 mi NNE 5.8 mph - 0.09 in Rain Rain
1:56 PM 52.0 °F 52.0 °F 100% 29.96 in 4.0 mi NE 5.8 mph - 0.11 in Rain Light Rain
2:03 PM 51.8 °F 51.8 °F 100% 29.91 in 5.0 mi ENE 6.9 mph - 0.00 in Rain Light Rain
2:56 PM 52.0 °F 52.0 °F 100% 29.90 in 2.5 mi NNE 8.1 mph - 0.03 in Rain Light Rain
3:03 PM 51.8 °F 51.8 °F 100% 29.85 in 3.0 mi NNE 6.9 mph - 0.00 in Rain Light Rain
3:20 PM 51.8 °F 51.8 °F 100% 29.84 in 2.5 mi Variable 4.6 mph - 0.02 in Rain Light Rain
3:32 PM 51.8 °F 51.8 °F 100% 29.84 in 3.0 mi North 8.1 mph - 0.03 in Rain Rain
3:56 PM 52.0 °F 52.0 °F 100% 29.85 in 5.0 mi NNE 6.9 mph - 0.05 in Rain Rain
4:04 PM 51.8 °F 51.8 °F 100% 29.81 in 6.0 mi Variable 5.8 mph - 0.00 in Rain Light Rain
4:56 PM 52.0 °F 52.0 °F 100% 29.82 in 2.0 mi North 4.6 mph - 0.01 in Rain Light Rain
5:03 PM 51.8 °F 51.8 °F 100% 29.78 in 3.0 mi North 5.8 mph - 0.00 in Rain Light Rain
5:56 PM 52.0 °F 52.0 °F 100% 29.79 in 4.0 mi North 6.9 mph - 0.00 in   Overcast
6:39 PM 51.8 °F 51.8 °F 100% 29.74 in 2.5 mi NNW 4.6 mph - N/A   Overcast
6:56 PM 52.0 °F 52.0 °F 100% 29.78 in 2.0 mi NW 6.9 mph - 0.00 in Rain Light Rain
7:51 PM 53.6 °F 53.6 °F 100% 29.75 in 4.0 mi NW 8.1 mph - 0.01 in   Overcast
7:56 PM 53.1 °F 53.1 °F 100% 29.79 in 2.0 mi NW 8.1 mph - 0.01 in   Overcast
8:02 PM 53.6 °F 53.6 °F 100% 29.75 in 2.0 mi NW 8.1 mph - N/A   Overcast
8:42 PM 51.8 °F 51.8 °F 100% 29.76 in 2.0 mi WNW 8.1 mph - N/A   Overcast
8:56 PM 53.1 °F 53.1 °F 100% 29.81 in 4.0 mi WNW 6.9 mph - N/A   Overcast
9:30 PM 53.6 °F 53.6 °F 100% 29.78 in 10.0 mi WNW 4.6 mph - N/A   Overcast
9:41 PM 51.8 °F 51.8 °F 100% 29.78 in 10.0 mi West 4.6 mph - N/A   Overcast
9:56 PM 52.0 °F 52.0 °F 100% 29.81 in 10.0 mi West 3.5 mph - N/A   Overcast
10:49 PM 51.8 °F 51.8 °F 100% 29.77 in 10.0 mi NW 3.5 mph - N/A   Scattered Clouds
10:56 PM 51.1 °F 51.1 °F 100% 29.81 in 10.0 mi Calm Calm - N/A   Partly Cloudy
11:56 PM 50.0 °F 50.0 °F 100% 29.81 in 10.0 mi Calm Calm - N/A   Clear